Overview Statistics Trail Chart Weather Telemetry Raw packets
 

This is the latest recevied weather packets stored in our database for station/object WA6OOO. If no packets are shown the sender has not sent any weather packets the latest 10 day(s).

<< 1 2 3 4 5 6 7 >>
Time Temp. Humidity Pressure Rain* Wind** Luminosity Snow
1788660861 21.67° C 78% 1015.9 hPa 0 mm - 5 W/m² -
1788660560 21.67° C 77% 1015.8 hPa 0 mm - 7 W/m² -
1788660255 22.22° C 77% 1015.7 hPa 0 mm - 10 W/m² -
1788659949 22.22° C 76% 1015.7 hPa 0 mm - 13 W/m² -
1788659649 22.22° C 75% 1015.7 hPa 0 mm - 15 W/m² -
1788659343 22.78° C 75% 1015.6 hPa 0 mm - 18 W/m² -
1788659043 22.78° C 74% 1015.7 hPa 0 mm - 20 W/m² -
1788658739 23.33° C 73% 1015.8 hPa 0 mm - 30 W/m² -
1788658434 23.33° C 72% 1015.8 hPa 0 mm - 37 W/m² -
1788658130 23.89° C 71% 1015.8 hPa 0 mm - 45 W/m² -
1788657824 23.89° C 70% 1015.9 hPa 0 mm - 52 W/m² -
1788657524 23.33° C 70% 1016 hPa 0 mm - 59 W/m² -
1788657219 23.89° C 72% 1015.9 hPa 0 mm - 67 W/m² -
1788656915 23.89° C 73% 1016 hPa 0 mm - 74 W/m² -
1788656611 23.89° C 72% 1015.9 hPa 0 mm - 83 W/m² -
1788656306 23.89° C 71% 1016.2 hPa 0 mm - 93 W/m² -
1788656005 24.44° C 70% 1015.9 hPa 0 mm - 102 W/m² -
1788655704 24.44° C 70% 1016 hPa 0 mm - 114 W/m² -
1788655404 24.44° C 68% 1016 hPa 0 mm - 126 W/m² -
1788655099 24.44° C 69% 1016 hPa 0 mm - 138 W/m² -
1788654795 25° C 68% 1015.8 hPa 0 mm - 155 W/m² -
1788654490 25° C 65% 1015.9 hPa 0 mm - 165 W/m² -
1788654189 25° C 66% 1015.8 hPa 0 mm - 177 W/m² -
1788653885 25.56° C 64% 1015.9 hPa 0 mm - 192 W/m² -
1788653580 25.56° C 62% 1015.8 hPa 0 mm - 206 W/m² -

* Rain latest hour (hover to see other rain measurements)
** Current wind speed in m/s (hover to see current wind gust speed)